Location: Unspecified
(48.2082°N, 0.0000°E)
Time: 09:12:48
(UTC+00:00)

A-11 Canister half - Pass Details

Date: 27 June 2019
Orbit: 1514 x 1686 km, 47.2° (Epoch: 24 July)

Event Time Altitude Azimuth Distance (km) Brightness Sun altitude
Rises 09:32:07 0° 231° (SW) 4,920 11.5 51.2°
Reaches altitude 10° 09:35:21 10° 228° (SW) 3,922 11.1 51.7°
Maximum altitude 09:45:08 60° 152° (SSE) 1,840 11.2 53.1°
Drops below altitude 10° 09:54:37 10° 76° (ENE) 3,812 11.6 54.4°
Sets 09:57:43 0° 73° (ENE) 4,776 11.9 54.9°
